Content
SEND FEEDBACK

Daily
Averages
Monthly
Summary
Thailand

SATTAHIP, THAILAND


Home > Asia > Thailand
Elevation: 59 feet     Latitude: 12 41N     Longitude: 100 59E

WEATHER
 
SELECT A DAY
Number of Records: 198,831;   Date Range: 7/1/96 - 7/29/14
 
SHARE

PRINT THIS DATA

[ ← Previous Day ]
WEATHER ALMANAC - JANUARY 23, 2013
[ Next Day → ]
[ °C ]   °F
Weather ElementAverageHighLow
Temperature80.5 °F91.4 °F (1:00 pm)71.6 °F (4:00 am)
Dewpoint71.8 °F75.2 °F (2:30 pm)68 °F (4:00 am)
Humidity75.8 %94 % (6:00 am)55 % (1:00 pm)
Barometer29.89 in29.95 in (9:00 am)29.83 in (2:30 pm)
Wind Speed3.5 mph9.2 mph (1:30 pm)
Weather ElementAverage
Visibility1.6 mi
Wind DirectionSSE (149.8 °)

Weather ElementTotal
Precipitation---
Cooling Degree Days16.5 (Base 65)
Growing Degree Days31.5 (Base 50)
Averaged from 46 records on January 23, 2013
WEATHER CONDITIONS BREAKOUT
WIND DIRECTION BREAKOUT
WEATHER BY HOUR - JANUARY 23, 2013
[ °C ]   °F
Local TimeTemperatureDewpointHumidityBarometerVisibilityWind DirectionWind SpeedGust SpeedPrecipitationEventsConditions
12:30 AM73.4 °F69.8 °F88 %29.92 in1.2 miCalmMist
1:00 AM73.4 °F69.8 °F88 %29.92 in1.2 miCalmMist
1:30 AM73.4 °F69.8 °F88 %29.89 in1.2 miCalmMist
2:00 AM73.4 °F69.8 °F88 %29.89 in1.2 miCalmMist
2:30 AM73.4 °F69.8 °F88 %29.89 in1.2 miCalmMist
3:00 AM73.4 °F69.8 °F88 %29.86 in1.2 miCalmMist
3:30 AM73.4 °F69.8 °F88 %29.86 in1.2 miCalmMist
4:00 AM71.6 °F68.0 °F88 %29.86 in1.2 miCalmMist
4:30 AM71.6 °F68.0 °F88 %29.86 in1.2 miCalmMist
5:00 AM71.6 °F68.0 °F88 %29.86 in1.2 miCalmMist
5:30 AM71.6 °F68.0 °F88 %29.86 in1.2 miCalmMist
6:00 AM71.6 °F69.8 °F94 %29.89 in1.2 miNE (50°)3.5 mphMist
6:30 AM71.6 °F68.0 °F88 %29.89 in1.2 miNE (50°)3.5 mphMist
7:00 AM71.6 °F68.0 °F88 %29.89 in1.2 miNNE (30°)3.5 mphMist
7:30 AM71.6 °F68.0 °F88 %29.92 in1.2 miNE (40°)2.3 mphMist
8:00 AM75.2 °F69.8 °F83 %29.92 in1.2 miCalmMist
8:30 AM80.6 °F73.4 °F79 %29.92 in1.2 miCalmMist
9:00 AM82.4 °F73.4 °F74 %29.95 in1.2 miCalmMist
9:30 AM84.2 °F73.4 °F70 %29.95 in1.9 miCalmMostly Cloudy
10:00 AM86.0 °F73.4 °F66 %29.95 in1.9 miWSW (250°)4.6 mphMostly Cloudy
10:30 AM86.0 °F73.4 °F66 %29.95 in1.9 miSSW (210°)4.6 mphHaze
11:00 AM87.8 °F71.6 °F58 %29.92 in1.9 miSSW (210°)5.8 mphHaze
11:30 AM87.8 °F73.4 °F62 %29.92 in1.9 miSW (230°)6.9 mphHaze
12:00 PM87.8 °F73.4 °F62 %29.89 in1.9 miSSW (200°)6.9 mphHaze
12:30 PM89.6 °F73.4 °F59 %29.92 in1.9 miSSW (210°)6.9 mphHaze
1:00 PM91.4 °F73.4 °F55 %29.89 in1.9 miSSW (210°)6.9 mphHaze
1:30 PM87.8 °F73.4 °F62 %29.86 in1.9 miSW (220°)9.2 mphHaze
2:00 PM87.8 °F73.4 °F62 %29.86 in1.9 miSW (230°)9.2 mphHaze
2:30 PM89.6 °F75.2 °F62 %29.83 in1.9 miWSW (240°)9.2 mphThunderstormThunderstorm
3:00 PM89.6 °F73.4 °F59 %29.83 in1.9 miWest (280°)9.2 mphThunderstormThunderstorm
3:30 PM87.8 °F69.8 °F55 %29.83 in1.9 miNNW (340°)6.9 mphThunderstorm
4:00 PM87.8 °F73.4 °F62 %29.83 in1.9 miWNW (300°)6.9 mphThunderstorm
4:30 PM87.8 °F73.4 °F62 %29.83 in1.9 miWNW (300°)4.6 mphMostly Cloudy
5:00 PM84.2 °F73.4 °F70 %29.86 in1.9 miWSW (250°)6.9 mphMostly Cloudy
5:30 PM84.2 °F73.4 °F70 %29.83 in1.9 miWSW (250°)4.6 mphMostly Cloudy
6:00 PM84.2 °F73.4 °F70 %29.83 in1.9 miWest (280°)6.9 mphMostly Cloudy
6:30 PM82.4 °F73.4 °F74 %29.83 in1.9 miWest (280°)4.6 mphMostly Cloudy
7:00 PM82.4 °F75.2 °F79 %29.86 in1.9 miWest (280°)2.3 mphMostly Cloudy
7:30 PM82.4 °F73.4 °F74 %29.86 in1.9 miWest (280°)2.3 mphMist
8:00 PM80.6 °F73.4 °F79 %29.89 in1.9 miWest (280°)2.3 mphMist
9:00 PM80.6 °F73.4 °F79 %29.89 in1.9 miWSW (250°)2.3 mphMist
9:30 PM80.6 °F73.4 °F79 %29.89 in1.9 miWSW (240°)2.3 mphMist
10:00 PM78.8 °F73.4 °F83 %29.92 in1.9 miWSW (250°)3.5 mphMist
10:30 PM78.8 °F73.4 °F83 %29.92 in1.9 miSW (230°)3.5 mphMostly Cloudy
11:00 PM78.8 °F73.4 °F83 %29.92 in1.9 miSSW (200°)3.5 mphMostly Cloudy
11:30 PM80.6 °F73.4 °F79 %29.92 in1.9 miSW (220°)3.5 mphScattered Clouds
Hourly data recorded from VTBU, located miles away from Sattahip, Thailand







STORIES FROM OUR PARTNERS